Regional Weather Roundup
Issued by NWS Cleveland, OH

Home | Current Version | Previous Version | Graphics & Text | Print | Product List | Glossary On
Versions: 1 2 3 4 5 6 7 8 9 10 11 12 13 14 15 16 17 18 19 20 21 22 23 24 25 26 27 28 29 30 31 32 33 34 35 36 37 38 39 40 41 42 43 44 45 46 47 48 49 50
000
ASUS41 KCLE 010100
RWRCLE
OHIO REGIONAL WEATHER ROUNDUP
NATIONAL WEATHER SERVICE WILMINGTON, OH
900 PM EDT SAT APR 30 2016

NOTE: "FAIR" INDICATES FEW OR NO CLOUDS BELOW 12,000 FEET WITH NO
SIGNIFICANT WEATHER AND/OR OBSTRUCTIONS TO VISIBILITY.

OHZ001>008-015>018-024>027-034-035-043-044-010200-
   NORTHWEST OHIO

CITY           SKY/WX    TMP DP  RH WIND       PRES   REMARKS
DEFIANCE       LGT RAIN  49  46  90 E8        29.95S FOG
FINDLAY        LGT RAIN  51  46  83 E12       29.92F
TOLEDO EXPRESS LGT RAIN  47  46  97 NE14G22   29.96F FOG
TOLEDO EXEC    LGT RAIN  48  45  89 NE12      29.98F FOG
LIMA           CLOUDY    52  51  97 E14       29.91F
$$

OHZ009>014-019>023-028>033-038-089-010200-
   NORTHEAST OHIO

CITY           SKY/WX    TMP DP  RH WIND       PRES   REMARKS
CLE-HOPKINS    LGT RAIN  52  48  87 NE7       30.04F FOG
CLE-LAKEFRONT  RAIN      50  49  96 NE12      30.01F FOG
CUY CO. ARPT   LGT RAIN  52  50  93 NE5       30.04S FOG
LORAIN-ELYRIA  LGT RAIN  49  47  93 E7        30.01F FOG
ASHTABULA      LGT RAIN  50  49  96 NE5       30.05R
AKRON-CANTON   LGT RAIN  54  51  90 NE7       30.00R FOG
WOOSTER        NOT AVBL
MANSFIELD      RAIN      51  51 100 NE8       29.97F FOG
YOUNGSTOWN     LGT RAIN  54  51  90 E12       30.01S
$$

OHZ042-051>053-060>062-070>072-077>081-010200-
  SOUTHWEST OHIO

CITY           SKY/WX    TMP DP  RH WIND       PRES   REMARKS
CINC-COVINGTON CLOUDY    60  59  96 SE9       29.91F
CINC-LUNKEN    LGT RAIN  59  59 100 SE5       29.93F FOG
HAMILTON       CLOUDY    59  58  96 VRB3      29.91F
DAYTON         NOT AVBL
WRIGHT-PAT AFB NOT AVBL
DAYTON GENERAL LGT RAIN  57  54  89 SE12      29.90F
WILMINGTON     LGT RAIN  56  55  97 SE6       29.94S FOG
$$

OHZ036-037-039>041-045>050-054>059-063>069-073>076-082>088-010200-
  CENTRAL AND SOUTHEAST OHIO

CITY           SKY/WX    TMP DP  RH WIND       PRES   REMARKS
COLUMBUS       LGT RAIN  55  55 100 SE5       29.95F
OSU AIRPORT    LGT RAIN  56  54  93 SE7       29.95F FOG
BOLTON FIELD   NOT AVBL
RICKENBACK AFB NOT AVBL
NEWARK         LGT RAIN  58  54  86 CALM      29.95S FOG
MARION         LGT RAIN  52  51  97 E7        29.95F FOG
LANCASTER      LGT RAIN  58  55  90 SE10      29.95S
ZANESVILLE     CLOUDY    59  55  87 SE7       29.96F
NEW PHILLY     LGT RAIN  55  53  93 E3        29.99S
$$



USA.gov is the U.S. government's official web portal to all federal, state and local government web resources and services.